Погода Сангары

Погода Сангары : погода сейчас, прогноз погоды и архив. Всё, что Вы хотите узнать о погоде Сангары!

Хотите узнать прогноз погоды Сангары? Тогда Вам сюда: Погода Сангары

Поиск расширенной информации на нашем сайте:

Другие новости

Новости СМИ2

Главная страница сайта

Новости сайта

03.07.2017

Напоминаем, что на нашем специализированном сайте Метеоцентр.Азия вы можете получить высокодетализированные автоматические прогнозы погоды по пунктам России, СНГ и мира в авиационном формате (включающие направление и скорость ветра, видимость, явления погоды, количество и форму облачности, нижнюю и верхнюю границу облачности).

Рекомендуем: лесные жители белфакс

Погода Сангары - сегодня

Время (UTC), дата Ветер
(°,м/с) 
Видим.   Явления Облачность Т
(°С)
Тd
(°С)
f(%) Тe
(°С)
Pmin
(гПа)
dP
(гПа)
Po
(мм)
O2
(г/м3)
Тmin Tmax R s Состояние
почвы
06 14.08.18 160 (Ю) 20000 м    4/0 верхняя 
[Ci fib]
+23.7 +12.4 49 +28  1018.8  -0.7  756  278           
09 14.08.18 тихо ()   20000 м    8/0 верхняя 
[Ci]
+24.1 +10.7 43 +26  1017.8  -1  755  278           
12 14.08.18 080 (В) 20000 м    ясно 
+17.4 +13.9 80 +26  1018.1  0.1  755  283    +24.6       
15 14.08.18 060 (СВ) 10 км    ясно 
+14 +10.8 81 +17  1018.9  0.6  756  288           
18 14.08.18 050 (СВ) 10 км    ясно 
+12.4 +9.9 85 +14  1018.7  -0.3  755  289           
21 14.08.18 060 (СВ) 20000 м    8/0 верхняя 
[Ci fib]
+13.2 +10.1 81 +15  1018.6  755  288           
00 15.08.18 070 (В) 20000 м    10/0 верхняя 
[Cc]
+20.6 +12.3 59 +25  1018.5  0.2  755  281  +11.5        влажная 
03 15.08.18 130 (ЮВ) 20000 м    10/0 верхняя 
[Ci fib]
+23.7 +13 51 +29  1017.5  -0.9  755  277           
06 15.08.18 110 (В) 20000 м    10/0 верхняя 
[Cs]
+25.8 +10 37 +27  1015.6  -1.8  753  276           
09 15.08.18 110 (В) 20000 м    10/0 средняя, верхняя 
[Ac trans|Cs]
+25.4 +9.1 36 +25  1014  -1.6  752  276           
12 15.08.18 090 (В) 20000 м    9/3 1000 м средняя 
[Sc|Ac und]
+20.4 +10.7 54 +22  1013.5  -0.7  752  280    +26.3       
15 15.08.18 120 (ЮВ) 10 км    10/4 1000 м кучево-дожд., средняя 
[Cb calv|Ac und]
+21.4 +7.5 41 +21  1013.2  -0.2  752  280           
18 15.08.18 090 (В) 10 км    10/4 1000 м кучево-дожд., средняя 
[Cb calv|Ac und]
+20 +8.1 46 +20  1011.8  -1.5  750  280           
21 15.08.18 110 (В) 20000 м    10/0 средняя, верхняя 
[Ac lent|Ci sp]
+19.2 +8.7 51 +20  1010.6  -1.2  750  281           
00 16.08.18 110 (В) 20000 м    10/0 средняя, верхняя 
[Ac trans|Ci fib]
+21 +9.4 47 +21  1009.7  -0.8  749  279  +18.7        сухая 
03 16.08.18 110 (В) 20000 м    10/0 средняя, верхняя 
[Ac trans|Ci fib]
+22.6 +8.8 41 +23  1007.4  -2.3  747  277           
06 16.08.18 110 (В) 20000 м    10/0 средняя, верхняя 
[Ac trans|Ci fib]
+23 +9.3 42 +23  1006.6  -0.7  747  276           
09 16.08.18 130 (ЮВ) 20000 м    9/0 средняя 
[Ac und]
+23.1 +8.5 39 +23  1005.7  -0.9  746  276           
15 16.08.18 100 (В) 10 км    9/0 средняя 
[Ac und]
+20.3 +9 48 +20  1004.7  -0.6  745  278           
21 16.08.18 110 (В) 5{10}  20000 м    10/0 средняя, верхняя 
[Ac trans|Cc]
+19 +9.1 53 +19  1003.9  -0.4  745  279           
00 17.08.18 090 (В) 20000 м    6/0 средняя, верхняя 
[Ac trans|Ci fib]
+21.9 +9 44 +22  1003.4  -0.4  744  276  +19        сухая 
03 17.08.18 100 (В) 20000 м    8/0 средняя, верхняя 
[Ac trans|Cc]
+24.4 +10.1 40 +26  1002.6  -0.7  744  273           
06 17.08.18 100 (В) 20000 м    10/0 средняя, верхняя 
[Ac trans|Ci sp]
+27 +8.8 32 +27  1001.4  -1.1  743  271           
09 17.08.18 100 (В) 20000 м    10/0 средняя, верхняя 
[Ac trans|Ci sp]
+25.3 +10 38 +27  1001.5  743  272           
12 17.08.18 120 (ЮВ) 20000 м    10/3 1000 м средняя, верхняя 
[Sc|Ac trans|Ci sp]
+23 +8.6 40 +23  1002.4  0.9  744  275    +27.5       
Время (UTC), дата Ветер
(°,м/с) 
Видим.   Явления Облачность Т
(°С)
Тd
(°С)
f(%) Тe
(°С)
Pmin
(гПа)
dP
(гПа)
Po
(мм)
O2
(г/м3)
Тmin Tmax R s Состояние
почвы

Для получения пояснительной информации подведите курсор к названию столбца.

ПОГОДА Сангары - архив

Всё, что Вы хотите узнать о погоде Сангары - удобно и подробно!

Выберите нужную дату (начиная с 1 января 2015* года) и нажмите кнопку "Найти".
Будут отображены архивные сводки погоды по пункту Сангары, начиная с указанной даты.


Отображать данные в формате CSV (для использования в таблицах Excel)


Внимание! Наш архив погоды предназначен исключительно для личного некоммерческого использования в познавательных целях. Если Вам необходимы официальные справки о состоянии погоды (для производственных, юридических, коммерческих и т.п. целей), обращайтесь в органы Росгидромета.

*Примечание: данная дата относится к архиву по метеостанциям СССР (Россия, СНГ, Балтия).
Архив по метеостанциям Зарубежной Европы и Азии (кроме Китая) хранится 10 дней, по другим регионам земного шара (Китай, Африка, Америка, Австралия, Океания) - 1 день.

Сангары - район местоположения метеостанции


Название, широта, долгота, высота метеостанции:
Сангары 64°ш. 127.5°д. 96 м над ур. моря [Российская Федерация]

Дополнительная информация

В oтличие oт бoльшинства пoгoдных сайтoв мы публикуем пoдрoбную метеoинфoрмацию в детальнoм прoфессиoнальнoм фoрмате.

Характеристики температуры и влажнoсти вoздуха измеряются на высoте 2 м в тени вдали oт зданий и деревьев.
Скoрoсть ветра измеряется на высoте 10 м (на урoвне рoста челoвека скoрoсть ветра ниже в 1.5-2 раза). Если метеoстанция нахoдится в гoрoде или в лесу, тo скoрoсть ветра занижена на 2-4 м/с пo сравнению с oткрытым местoм. Скoрoсть ветра над акватoриями крупных рек и oзёр, а также на вершинах хoлмoв на 2-5 м/с выше, чем в oбычных услoвиях.
Атмoсфернoе давление в разных тoчках местнoсти мoжет значительнo oтличаться oт давления на метеoстанции, в зависимoсти oт услoвий рельефа (при пoдъёме на 10 м давление пoнижается примернo на 1 мм рт.ст.).